Time,TemperatureF,DewpointF,PressureIn,WindDirection,WindDirectionDegrees,WindSpeedMPH,WindSpeedGustMPH,Humidity,HourlyPrecipIn,Conditions,Clouds,dailyrainin,SoftwareType,DateUTC
2013-01-08 00:08:00,31.4,14.9,30.16,NNW,340,6.0,6.0,50,0.00,,,0.00,Wunderground v.1.15,2013-01-08 07:08:00,
2013-01-08 00:13:00,31.3,14.8,30.16,NNW,337,5.0,6.0,50,0.00,,,0.00,Wunderground v.1.15,2013-01-08 07:13:00,
2013-01-08 00:23:00,31.1,14.6,30.16,NNW,347,7.0,7.0,50,0.00,,,0.00,Wunderground v.1.15,2013-01-08 07:23:00,
2013-01-08 00:28:00,31.0,15.0,30.16,NNE,14,7.0,11.0,51,0.00,,,0.00,Wunderground v.1.15,2013-01-08 07:28:00,
2013-01-08 00:33:00,30.9,14.9,30.17,NE,38,7.0,11.0,51,0.00,,,0.00,Wunderground v.1.15,2013-01-08 07:33:00,
2013-01-08 00:43:00,30.6,15.9,30.17,NNW,336,7.0,9.0,54,0.00,,,0.00,Wunderground v.1.15,2013-01-08 07:43:00,
2013-01-08 00:53:00,30.4,16.6,30.17,NNE,29,7.0,7.0,56,0.00,,,0.00,Wunderground v.1.15,2013-01-08 07:53:00,
2013-01-08 00:58:00,30.2,16.4,30.17,NNW,329,6.0,6.0,56,0.00,,,0.00,Wunderground v.1.15,2013-01-08 07:58:00,
2013-01-08 01:08:00,30.0,17.0,30.17,NNE,13,5.0,5.0,58,0.00,,,0.00,Wunderground v.1.15,2013-01-08 08:08:00,
2013-01-08 01:13:00,30.0,17.0,30.17,NNE,20,6.0,6.0,58,0.00,,,0.00,Wunderground v.1.15,2013-01-08 08:13:00,
2013-01-08 01:18:00,29.8,16.8,30.18,NNW,343,6.0,7.0,58,0.00,,,0.00,Wunderground v.1.15,2013-01-08 08:18:00,
2013-01-08 01:28:00,29.7,16.7,30.18,NNE,23,5.0,7.0,58,0.00,,,0.00,Wunderground v.1.15,2013-01-08 08:28:00,
2013-01-08 01:33:00,29.5,16.5,30.18,NNE,14,5.0,7.0,58,0.00,,,0.00,Wunderground v.1.15,2013-01-08 08:33:00,
2013-01-08 01:38:00,29.3,16.3,30.18,NNE,12,5.0,6.0,58,0.00,,,0.00,Wunderground v.1.15,2013-01-08 08:38:00,
2013-01-08 01:43:00,29.1,16.5,30.18,NE,39,5.0,6.0,59,0.00,,,0.00,Wunderground v.1.15,2013-01-08 08:43:00,
2013-01-08 01:48:00,28.9,16.4,30.18,North,357,5.0,5.0,59,0.00,,,0.00,Wunderground v.1.15,2013-01-08 08:48:00,
2013-01-08 01:58:00,28.6,16.5,30.18,North,9,3.0,4.0,60,0.00,,,0.00,Wunderground v.1.15,2013-01-08 08:58:00,
2013-01-08 02:08:00,28.5,16.4,30.18,North,355,4.0,4.0,60,0.00,,,0.00,Wunderground v.1.15,2013-01-08 09:08:00,
2013-01-08 02:18:00,28.3,16.2,30.17,NNW,342,3.0,3.0,60,0.00,,,0.00,Wunderground v.1.15,2013-01-08 09:18:00,
2013-01-08 02:23:00,28.0,15.9,30.18,NNW,340,3.0,3.0,60,0.00,,,0.00,Wunderground v.1.15,2013-01-08 09:23:00,
2013-01-08 02:28:00,28.0,16.3,30.17,NNW,336,3.0,3.0,61,0.00,,,0.00,Wunderground v.1.15,2013-01-08 09:28:00,
2013-01-08 02:33:00,27.8,16.1,30.17,NNW,333,3.0,3.0,61,0.00,,,0.00,Wunderground v.1.15,2013-01-08 09:33:00,
2013-01-08 02:43:00,27.6,15.9,30.17,NNW,328,4.0,6.0,61,0.00,,,0.00,Wunderground v.1.15,2013-01-08 09:43:00,
2013-01-08 02:48:00,27.4,15.7,30.17,North,349,5.0,8.0,61,0.00,,,0.00,Wunderground v.1.15,2013-01-08 09:48:00,
2013-01-08 02:58:00,27.0,15.3,30.17,NNE,27,6.0,6.0,61,0.00,,,0.00,Wunderground v.1.15,2013-01-08 09:58:00,
2013-01-08 03:08:00,26.6,14.9,30.17,North,4,4.0,4.0,61,0.00,,,0.00,Wunderground v.1.15,2013-01-08 10:08:00,
2013-01-08 03:18:00,26.2,14.6,30.17,North,351,3.0,4.0,61,0.00,,,0.00,Wunderground v.1.15,2013-01-08 10:18:00,
2013-01-08 03:28:00,25.9,13.5,30.17,NNW,333,3.0,5.0,59,0.00,,,0.00,Wunderground v.1.15,2013-01-08 10:28:00,
2013-01-08 03:38:00,25.7,12.6,30.17,North,353,4.0,4.0,57,0.00,,,0.00,Wunderground v.1.15,2013-01-08 10:38:00,
2013-01-08 03:43:00,25.5,12.0,30.17,NW,324,2.0,4.0,56,0.00,,,0.00,Wunderground v.1.15,2013-01-08 10:43:00,
2013-01-08 03:53:00,25.3,11.4,30.17,NW,322,1.0,1.0,55,0.00,,,0.00,Wunderground v.1.15,2013-01-08 10:53:00,
2013-01-08 03:58:00,25.2,11.7,30.17,NW,326,1.0,2.0,56,0.00,,,0.00,Wunderground v.1.15,2013-01-08 10:58:00,
2013-01-08 04:08:00,24.8,10.5,30.17,North,1,2.0,2.0,54,0.00,,,0.00,Wunderground v.1.15,2013-01-08 11:08:00,
2013-01-08 04:13:00,24.9,10.2,30.18,NNE,23,4.0,8.0,53,0.00,,,0.00,Wunderground v.1.15,2013-01-08 11:13:00,
2013-01-08 04:18:00,25.1,10.3,30.18,NNW,344,5.0,5.0,53,0.00,,,0.00,Wunderground v.1.15,2013-01-08 11:18:00,
2013-01-08 04:23:00,25.3,10.5,30.18,NNW,337,6.0,6.0,53,0.00,,,0.00,Wunderground v.1.15,2013-01-08 11:23:00,
2013-01-08 04:33:00,25.6,10.0,30.18,North,1,5.0,5.0,51,0.00,,,0.00,Wunderground v.1.15,2013-01-08 11:33:00,
2013-01-08 04:43:00,26.1,10.4,30.17,NNE,32,7.0,8.0,51,0.00,,,0.00,Wunderground v.1.15,2013-01-08 11:43:00,
2013-01-08 04:53:00,26.2,10.9,30.17,North,1,5.0,6.0,52,0.00,,,0.00,Wunderground v.1.15,2013-01-08 11:53:00,
2013-01-08 04:58:00,26.3,11.0,30.18,NNE,16,4.0,4.0,52,0.00,,,0.00,Wunderground v.1.15,2013-01-08 11:58:00,
2013-01-08 05:08:00,26.3,11.0,30.18,NNE,33,3.0,3.0,52,0.00,,,0.00,Wunderground v.1.15,2013-01-08 12:08:00,
2013-01-08 05:18:00,26.2,11.4,30.18,NW,305,2.0,2.0,53,0.00,,,0.00,Wunderground v.1.15,2013-01-08 12:18:00,
2013-01-08 05:28:00,26.1,10.9,30.19,NNE,18,2.0,2.0,52,0.00,,,0.00,Wunderground v.1.15,2013-01-08 12:28:00,
2013-01-08 05:38:00,25.5,10.3,30.19,NE,54,0.0,0.0,52,0.00,,,0.00,Wunderground v.1.15,2013-01-08 12:38:00,
2013-01-08 05:43:00,25.4,10.2,30.19,North,358,1.0,1.0,52,0.00,,,0.00,Wunderground v.1.15,2013-01-08 12:43:00,
2013-01-08 05:48:00,25.4,10.6,30.19,NNE,14,1.0,1.0,53,0.00,,,0.00,Wunderground v.1.15,2013-01-08 12:48:00,
2013-01-08 05:58:00,25.7,10.5,30.19,NNE,23,2.0,2.0,52,0.00,,,0.00,Wunderground v.1.15,2013-01-08 12:58:00,
2013-01-08 06:08:00,25.7,10.9,30.19,NNE,20,0.0,0.0,53,0.00,,,0.00,Wunderground v.1.15,2013-01-08 13:08:00,
2013-01-08 06:18:00,25.7,11.3,30.20,North,358,1.0,3.0,54,0.00,,,0.00,Wunderground v.1.15,2013-01-08 13:18:00,
2013-01-08 06:28:00,25.7,11.3,30.21,NNE,13,3.0,3.0,54,0.00,,,0.00,Wunderground v.1.15,2013-01-08 13:28:00,
2013-01-08 06:33:00,25.7,11.7,30.21,NNE,19,3.0,3.0,55,0.00,,,0.00,Wunderground v.1.15,2013-01-08 13:33:00,
2013-01-08 06:43:00,25.7,12.2,30.22,NNE,23,3.0,4.0,56,0.00,,,0.00,Wunderground v.1.15,2013-01-08 13:43:00,
2013-01-08 06:53:00,25.6,12.5,30.21,North,354,2.0,3.0,57,0.00,,,0.00,Wunderground v.1.15,2013-01-08 13:53:00,
2013-01-08 06:58:00,25.5,12.4,30.21,NE,47,0.0,2.0,57,0.00,,,0.00,Wunderground v.1.15,2013-01-08 13:58:00,
2013-01-08 07:08:00,25.8,12.6,30.21,NNW,342,2.0,2.0,57,0.00,,,0.00,Wunderground v.1.15,2013-01-08 14:08:00,
2013-01-08 07:18:00,25.5,12.4,30.22,NNE,15,2.0,3.0,57,0.00,,,0.00,Wunderground v.1.15,2013-01-08 14:18:00,
2013-01-08 07:28:00,25.5,11.6,30.23,NE,41,5.0,7.0,55,0.00,,,0.00,Wunderground v.1.15,2013-01-08 14:28:00,
2013-01-08 07:38:00,25.9,11.1,30.23,NNE,17,6.0,6.0,53,0.00,,,0.00,Wunderground v.1.15,2013-01-08 14:38:00,
2013-01-08 07:43:00,26.2,10.9,30.23,NNE,28,5.0,6.0,52,0.00,,,0.00,Wunderground v.1.15,2013-01-08 14:43:00,
2013-01-08 07:53:00,27.0,10.8,30.24,NNE,12,4.0,5.0,50,0.00,,,0.00,Wunderground v.1.15,2013-01-08 14:53:00,
2013-01-08 07:58:00,27.3,11.1,30.24,NE,36,2.0,2.0,50,0.00,,,0.00,Wunderground v.1.15,2013-01-08 14:58:00,
2013-01-08 08:08:00,27.9,10.2,30.24,North,7,4.0,6.0,47,0.00,,,0.00,Wunderground v.1.15,2013-01-08 15:08:00,
2013-01-08 08:13:00,28.1,9.9,30.25,North,359,6.0,7.0,46,0.00,,,0.00,Wunderground v.1.15,2013-01-08 15:13:00,
2013-01-08 08:23:00,28.8,10.1,30.26,North,357,7.0,7.0,45,0.00,,,0.00,Wunderground v.1.15,2013-01-08 15:23:00,
2013-01-08 08:28:00,29.5,11.7,30.26,NW,323,9.0,14.0,47,0.00,,,0.00,Wunderground v.1.15,2013-01-08 15:28:00,
2013-01-08 08:38:00,30.5,13.1,30.26,NNE,26,9.0,9.0,48,0.00,,,0.00,Wunderground v.1.15,2013-01-08 15:38:00,
2013-01-08 08:48:00,30.9,12.0,30.27,NNW,342,8.0,8.0,45,0.00,,,0.00,Wunderground v.1.15,2013-01-08 15:48:00,
2013-01-08 08:53:00,31.1,11.7,30.27,North,3,7.0,8.0,44,0.00,,,0.00,Wunderground v.1.15,2013-01-08 15:53:00,
2013-01-08 08:58:00,31.5,11.0,30.27,North,10,5.0,5.0,42,0.00,,,0.00,Wunderground v.1.15,2013-01-08 15:58:00,
2013-01-08 09:08:00,32.6,10.9,30.26,North,354,5.0,5.0,40,0.00,,,0.00,Wunderground v.1.15,2013-01-08 16:08:00,
2013-01-08 09:13:00,33.3,11.5,30.26,NNW,333,6.0,6.0,40,0.00,,,0.00,Wunderground v.1.15,2013-01-08 16:13:00,
2013-01-08 09:18:00,33.9,12.1,30.26,North,7,6.0,7.0,40,0.00,,,0.00,Wunderground v.1.15,2013-01-08 16:18:00,
2013-01-08 09:23:00,34.4,12.5,30.26,North,356,8.0,9.0,40,0.00,,,0.00,Wunderground v.1.15,2013-01-08 16:23:00,
2013-01-08 09:33:00,35.0,13.1,30.27,NNW,328,9.0,9.0,40,0.00,,,0.00,Wunderground v.1.15,2013-01-08 16:33:00,
2013-01-08 09:43:00,34.7,12.2,30.27,NNW,347,9.0,13.0,39,0.00,,,0.00,Wunderground v.1.15,2013-01-08 16:43:00,
2013-01-08 09:48:00,34.7,12.8,30.27,North,4,9.0,13.0,40,0.00,,,0.00,Wunderground v.1.15,2013-01-08 16:48:00,
2013-01-08 09:53:00,34.8,12.9,30.26,NNE,12,8.0,13.0,40,0.00,,,0.00,Wunderground v.1.15,2013-01-08 16:53:00,
2013-01-08 09:58:00,35.0,11.9,30.27,NW,315,8.0,8.0,38,0.00,,,0.00,Wunderground v.1.15,2013-01-08 16:58:00,
2013-01-08 10:08:00,35.0,10.7,30.26,NNW,332,6.0,12.0,36,0.00,,,0.00,Wunderground v.1.15,2013-01-08 17:08:00,
2013-01-08 10:13:00,34.8,10.5,30.26,NNW,342,7.0,12.0,36,0.00,,,0.00,Wunderground v.1.15,2013-01-08 17:13:00,
2013-01-08 10:18:00,34.9,10.6,30.26,NE,39,8.0,11.0,36,0.00,,,0.00,Wunderground v.1.15,2013-01-08 17:18:00,
2013-01-08 10:28:00,34.9,11.8,30.27,NNW,345,8.0,8.0,38,0.00,,,0.00,Wunderground v.1.15,2013-01-08 17:28:00,
2013-01-08 10:38:00,35.1,12.0,30.26,North,6,7.0,7.0,38,0.00,,,0.00,Wunderground v.1.15,2013-01-08 17:38:00,
2013-01-08 10:43:00,35.3,12.2,30.26,North,4,8.0,8.0,38,0.00,,,0.00,Wunderground v.1.15,2013-01-08 17:43:00,
2013-01-08 10:48:00,35.8,12.0,30.26,NNE,21,5.0,11.0,37,0.00,,,0.00,Wunderground v.1.15,2013-01-08 17:48:00,
2013-01-08 10:53:00,35.8,12.0,30.25,NE,36,6.0,11.0,37,0.00,,,0.00,Wunderground v.1.15,2013-01-08 17:53:00,
2013-01-08 10:58:00,36.1,11.7,30.25,NE,35,6.0,6.0,36,0.00,,,0.00,Wunderground v.1.15,2013-01-08 17:58:00,
2013-01-08 11:08:00,36.3,11.2,30.25,North,6,8.0,12.0,35,0.00,,,0.00,Wunderground v.1.15,2013-01-08 18:08:00,
2013-01-08 11:18:00,37.3,11.5,30.25,NNE,32,7.0,11.0,34,0.00,,,0.00,Wunderground v.1.15,2013-01-08 18:18:00,
2013-01-08 11:23:00,37.2,11.4,30.25,NNE,12,8.0,11.0,34,0.00,,,0.00,Wunderground v.1.15,2013-01-08 18:23:00,
2013-01-08 11:33:00,37.6,11.0,30.24,NNW,329,8.0,8.0,33,0.00,,,0.00,Wunderground v.1.15,2013-01-08 18:33:00,
2013-01-08 11:38:00,38.1,10.8,30.24,NNW,332,8.0,8.0,32,0.00,,,0.00,Wunderground v.1.15,2013-01-08 18:38:00,
2013-01-08 11:48:00,38.7,11.3,30.24,NE,41,7.0,7.0,32,0.00,,,0.00,Wunderground v.1.15,2013-01-08 18:48:00,
2013-01-08 11:58:00,39.4,11.2,30.24,NE,49,6.0,6.0,31,0.00,,,0.00,Wunderground v.1.15,2013-01-08 18:58:00,
2013-01-08 12:08:00,39.8,11.6,30.23,East,84,6.0,6.0,31,0.00,,,0.00,Wunderground v.1.15,2013-01-08 19:08:00,
2013-01-08 12:13:00,40.0,11.8,30.23,NNW,338,6.0,6.0,31,0.00,,,0.00,Wunderground v.1.15,2013-01-08 19:13:00,
2013-01-08 12:23:00,40.7,12.4,30.22,NW,311,5.0,6.0,31,0.00,,,0.00,Wunderground v.1.15,2013-01-08 19:23:00,
2013-01-08 12:28:00,40.9,12.5,30.22,NNE,13,5.0,5.0,31,0.00,,,0.00,Wunderground v.1.15,2013-01-08 19:28:00,
2013-01-08 12:38:00,41.5,12.3,30.21,NW,322,6.0,6.0,30,0.00,,,0.00,Wunderground v.1.15,2013-01-08 19:38:00,
2013-01-08 12:43:00,41.8,12.6,30.20,NNW,338,5.0,9.0,30,0.00,,,0.00,Wunderground v.1.15,2013-01-08 19:43:00,
2013-01-08 12:53:00,42.4,13.1,30.20,NNE,22,6.0,6.0,30,0.00,,,0.00,Wunderground v.1.15,2013-01-08 19:53:00,
2013-01-08 12:58:00,42.9,12.8,30.19,North,1,6.0,6.0,29,0.00,,,0.00,Wunderground v.1.15,2013-01-08 19:58:00,
2013-01-08 13:08:00,43.7,12.7,30.19,NNE,18,5.0,6.0,28,0.00,,,0.00,Wunderground v.1.15,2013-01-08 20:08:00,
2013-01-08 13:18:00,44.5,12.5,30.19,North,352,6.0,6.0,27,0.00,,,0.00,Wunderground v.1.15,2013-01-08 20:18:00,
2013-01-08 13:28:00,44.8,11.9,30.20,NNW,347,6.0,6.0,26,0.00,,,0.00,Wunderground v.1.15,2013-01-08 20:28:00,
2013-01-08 13:38:00,45.3,11.5,30.21,North,351,7.0,7.0,25,0.00,,,0.00,Wunderground v.1.15,2013-01-08 20:38:00,
2013-01-08 13:48:00,45.9,12.0,30.20,NNE,13,8.0,8.0,25,0.00,,,0.00,Wunderground v.1.15,2013-01-08 20:48:00,
2013-01-08 13:58:00,46.5,11.6,30.21,NNW,342,7.0,7.0,24,0.00,,,0.00,Wunderground v.1.15,2013-01-08 20:58:00,
2013-01-08 14:08:00,47.3,11.3,30.21,NNW,335,7.0,7.0,23,0.00,,,0.00,Wunderground v.1.15,2013-01-08 21:08:00,
2013-01-08 14:18:00,47.6,11.6,30.21,NNW,339,7.0,9.0,23,0.00,,,0.00,Wunderground v.1.15,2013-01-08 21:18:00,
2013-01-08 14:23:00,47.6,10.6,30.21,North,11,6.0,9.0,22,0.00,,,0.00,Wunderground v.1.15,2013-01-08 21:23:00,
2013-01-08 14:33:00,47.7,10.6,30.21,NNW,345,5.0,11.0,22,0.00,,,0.00,Wunderground v.1.15,2013-01-08 21:33:00,
2013-01-08 14:38:00,47.6,11.6,30.21,NW,309,6.0,6.0,23,0.00,,,0.00,Wunderground v.1.15,2013-01-08 21:38:00,
2013-01-08 14:48:00,48.0,11.9,30.22,NW,319,6.0,6.0,23,0.00,,,0.00,Wunderground v.1.15,2013-01-08 21:48:00,
2013-01-08 14:58:00,48.1,12.0,30.22,North,351,5.0,5.0,23,0.00,,,0.00,Wunderground v.1.15,2013-01-08 21:58:00,
2013-01-08 15:08:00,48.3,11.2,30.22,NW,321,5.0,7.0,22,0.00,,,0.00,Wunderground v.1.15,2013-01-08 22:08:00,
2013-01-08 15:13:00,48.3,11.2,30.22,North,353,5.0,7.0,22,0.00,,,0.00,Wunderground v.1.15,2013-01-08 22:13:00,
2013-01-08 15:23:00,48.1,11.0,30.23,NNW,330,6.0,6.0,22,0.00,,,0.00,Wunderground v.1.15,2013-01-08 22:23:00,
2013-01-08 15:33:00,48.3,11.2,30.23,NNW,342,5.0,8.0,22,0.00,,,0.00,Wunderground v.1.15,2013-01-08 22:33:00,
2013-01-08 15:43:00,48.3,11.2,30.23,NNE,29,6.0,8.0,22,0.00,,,0.00,Wunderground v.1.15,2013-01-08 22:43:00,
2013-01-08 15:48:00,48.3,11.2,30.23,NNW,335,5.0,5.0,22,0.00,,,0.00,Wunderground v.1.15,2013-01-08 22:48:00,
2013-01-08 15:58:00,48.0,10.9,30.24,NNW,342,5.0,5.0,22,0.00,,,0.00,Wunderground v.1.15,2013-01-08 22:58:00,
2013-01-08 16:08:00,47.5,11.5,30.24,NE,39,5.0,5.0,23,0.00,,,0.00,Wunderground v.1.15,2013-01-08 23:08:00,
2013-01-08 16:18:00,47.1,12.1,30.25,WNW,301,4.0,4.0,24,0.00,,,0.00,Wunderground v.1.15,2013-01-08 23:18:00,
2013-01-08 16:28:00,46.5,12.5,30.25,NW,320,5.0,6.0,25,0.00,,,0.00,Wunderground v.1.15,2013-01-08 23:28:00,
2013-01-08 16:33:00,46.4,12.4,30.25,NW,325,5.0,6.0,25,0.00,,,0.00,Wunderground v.1.15,2013-01-08 23:33:00,
2013-01-08 16:43:00,45.8,12.8,30.25,NNW,342,4.0,6.0,26,0.00,,,0.00,Wunderground v.1.15,2013-01-08 23:43:00,
2013-01-08 16:53:00,45.0,13.0,30.26,NNW,335,4.0,6.0,27,0.00,,,0.00,Wunderground v.1.15,2013-01-08 23:53:00,
2013-01-08 16:58:00,44.6,13.5,30.26,North,3,3.0,5.0,28,0.00,,,0.00,Wunderground v.1.15,2013-01-08 23:58:00,
2013-01-08 17:08:00,43.9,13.6,30.27,North,353,4.0,4.0,29,0.00,,,0.00,Wunderground v.1.15,2013-01-09 00:08:00,
2013-01-08 17:13:00,43.5,13.3,30.27,NNW,335,4.0,5.0,29,0.00,,,0.00,Wunderground v.1.15,2013-01-09 00:13:00,
2013-01-08 17:18:00,43.0,13.6,30.27,NE,34,4.0,4.0,30,0.00,,,0.00,Wunderground v.1.15,2013-01-09 00:18:00,
2013-01-08 17:28:00,42.3,13.8,30.27,NNE,15,4.0,6.0,31,0.00,,,0.00,Wunderground v.1.15,2013-01-09 00:28:00,
2013-01-08 17:38:00,41.6,13.9,30.28,NNE,13,4.0,4.0,32,0.00,,,0.00,Wunderground v.1.15,2013-01-09 00:38:00,
2013-01-08 17:43:00,41.2,14.2,30.28,NE,53,2.0,4.0,33,0.00,,,0.00,Wunderground v.1.15,2013-01-09 00:43:00,
2013-01-08 17:53:00,40.3,14.1,30.29,East,88,0.0,1.0,34,0.00,,,0.00,Wunderground v.1.15,2013-01-09 00:53:00,
2013-01-08 17:58:00,39.8,13.7,30.29,ESE,107,0.0,0.0,34,0.00,,,0.00,Wunderground v.1.15,2013-01-09 00:58:00,
2013-01-08 18:08:00,38.7,14.0,30.30,ESE,121,0.0,0.0,36,0.00,,,0.00,Wunderground v.1.15,2013-01-09 01:08:00,
2013-01-08 18:13:00,38.3,13.6,30.30,NNE,15,0.0,4.0,36,0.00,,,0.00,Wunderground v.1.15,2013-01-09 01:13:00,
2013-01-08 18:18:00,38.4,14.4,30.30,NNE,26,1.0,1.0,37,0.00,,,0.00,Wunderground v.1.15,2013-01-09 01:18:00,
2013-01-08 18:23:00,38.4,13.7,30.31,NNW,347,3.0,3.0,36,0.00,,,0.00,Wunderground v.1.15,2013-01-09 01:23:00,
2013-01-08 18:33:00,38.1,14.1,30.32,NE,54,1.0,3.0,37,0.00,,,0.00,Wunderground v.1.15,2013-01-09 01:33:00,
2013-01-08 18:43:00,37.8,14.4,30.32,NW,316,3.0,4.0,38,0.00,,,0.00,Wunderground v.1.15,2013-01-09 01:43:00,
2013-01-08 18:53:00,37.5,14.8,30.33,NNW,347,5.0,5.0,39,0.00,,,0.00,Wunderground v.1.15,2013-01-09 01:53:00,
2013-01-08 18:58:00,37.2,14.5,30.32,North,11,5.0,5.0,39,0.00,,,0.00,Wunderground v.1.15,2013-01-09 01:58:00,
2013-01-08 19:08:00,36.9,14.2,30.33,NNW,340,5.0,5.0,39,0.00,,,0.00,Wunderground v.1.15,2013-01-09 02:08:00,
2013-01-08 19:13:00,36.6,14.5,30.33,North,1,4.0,5.0,40,0.00,,,0.00,Wunderground v.1.15,2013-01-09 02:13:00,
2013-01-08 19:23:00,36.2,14.2,30.34,NNE,26,4.0,4.0,40,0.00,,,0.00,Wunderground v.1.15,2013-01-09 02:23:00,
2013-01-08 19:28:00,36.1,14.1,30.34,NNW,335,3.0,5.0,40,0.00,,,0.00,Wunderground v.1.15,2013-01-09 02:28:00,
2013-01-08 19:38:00,35.7,14.3,30.34,NW,321,4.0,4.0,41,0.00,,,0.00,Wunderground v.1.15,2013-01-09 02:38:00,
2013-01-08 19:48:00,35.4,14.6,30.34,North,360,5.0,6.0,42,0.00,,,0.00,Wunderground v.1.15,2013-01-09 02:48:00,
2013-01-08 19:53:00,35.2,14.4,30.35,ENE,58,6.0,6.0,42,0.00,,,0.00,Wunderground v.1.15,2013-01-09 02:53:00,
2013-01-08 19:58:00,35.1,14.8,30.35,North,358,6.0,10.0,43,0.00,,,0.00,Wunderground v.1.15,2013-01-09 02:58:00,
2013-01-08 20:08:00,34.9,14.6,30.36,NNW,331,6.0,7.0,43,0.00,,,0.00,Wunderground v.1.15,2013-01-09 03:08:00,
2013-01-08 20:18:00,34.7,14.5,30.36,North,6,5.0,5.0,43,0.00,,,0.00,Wunderground v.1.15,2013-01-09 03:18:00,
2013-01-08 20:23:00,34.6,14.4,30.36,NW,324,5.0,8.0,43,0.00,,,0.00,Wunderground v.1.15,2013-01-09 03:23:00,
2013-01-08 20:33:00,34.5,14.8,30.37,NNE,15,4.0,5.0,44,0.00,,,0.00,Wunderground v.1.15,2013-01-09 03:33:00,
2013-01-08 20:43:00,34.4,14.7,30.38,North,6,5.0,5.0,44,0.00,,,0.00,Wunderground v.1.15,2013-01-09 03:43:00,
2013-01-08 20:48:00,34.3,14.6,30.38,NW,326,5.0,5.0,44,0.00,,,0.00,Wunderground v.1.15,2013-01-09 03:48:00,
2013-01-08 20:58:00,34.3,14.6,30.39,North,357,6.0,9.0,44,0.00,,,0.00,Wunderground v.1.15,2013-01-09 03:58:00,
2013-01-08 21:08:00,34.1,14.9,30.39,NW,326,5.0,5.0,45,0.00,,,0.00,Wunderground v.1.15,2013-01-09 04:08:00,
2013-01-08 21:13:00,34.0,14.9,30.40,NNE,22,5.0,9.0,45,0.00,,,0.00,Wunderground v.1.15,2013-01-09 04:13:00,
2013-01-08 21:18:00,33.8,14.7,30.40,NNE,26,5.0,10.0,45,0.00,,,0.00,Wunderground v.1.15,2013-01-09 04:18:00,
2013-01-08 21:28:00,33.5,14.9,30.40,NNE,16,4.0,4.0,46,0.00,,,0.00,Wunderground v.1.15,2013-01-09 04:28:00,
2013-01-08 21:38:00,33.3,14.7,30.41,NNW,331,3.0,4.0,46,0.00,,,0.00,Wunderground v.1.15,2013-01-09 04:38:00,
2013-01-08 21:48:00,33.0,14.9,30.41,NW,324,3.0,3.0,47,0.00,,,0.00,Wunderground v.1.15,2013-01-09 04:48:00,
2013-01-08 21:58:00,32.8,14.8,30.42,North,352,4.0,4.0,47,0.00,,,0.00,Wunderground v.1.15,2013-01-09 04:58:00,
2013-01-08 22:03:00,32.7,15.1,30.42,NNW,336,4.0,4.0,48,0.00,,,0.00,Wunderground v.1.15,2013-01-09 05:03:00,
2013-01-08 22:08:00,32.5,15.0,30.42,NNW,347,4.0,4.0,48,0.00,,,0.00,Wunderground v.1.15,2013-01-09 05:08:00,
2013-01-08 22:13:00,32.4,14.9,30.43,North,349,5.0,5.0,48,0.00,,,0.00,Wunderground v.1.15,2013-01-09 05:13:00,
2013-01-08 22:18:00,32.3,14.8,30.43,NW,316,4.0,4.0,48,0.00,,,0.00,Wunderground v.1.15,2013-01-09 05:18:00,
2013-01-08 22:23:00,32.2,15.2,30.43,NE,43,4.0,4.0,49,0.00,,,0.00,Wunderground v.1.15,2013-01-09 05:23:00,
2013-01-08 22:28:00,32.0,15.0,30.44,NE,51,4.0,4.0,49,0.00,,,0.00,Wunderground v.1.15,2013-01-09 05:28:00,
2013-01-08 22:33:00,31.9,14.9,30.44,NNW,338,4.0,4.0,49,0.00,,,0.00,Wunderground v.1.15,2013-01-09 05:33:00,
2013-01-08 22:43:00,31.6,15.1,30.45,East,83,3.0,3.0,50,0.00,,,0.00,Wunderground v.1.15,2013-01-09 05:43:00,
2013-01-08 22:48:00,31.5,15.0,30.45,NNE,15,4.0,6.0,50,0.00,,,0.00,Wunderground v.1.15,2013-01-09 05:48:00,
2013-01-08 22:58:00,31.4,14.9,30.46,NNE,17,3.0,3.0,50,0.00,,,0.00,Wunderground v.1.15,2013-01-09 05:58:00,
2013-01-08 23:08:00,31.2,14.7,30.46,North,355,2.0,2.0,50,0.00,,,0.00,Wunderground v.1.15,2013-01-09 06:08:00,
2013-01-08 23:18:00,31.2,14.7,30.46,NE,39,3.0,4.0,50,0.00,,,0.00,Wunderground v.1.15,2013-01-09 06:18:00,
2013-01-08 23:28:00,31.3,14.8,30.47,NNE,23,4.0,4.0,50,0.00,,,0.00,Wunderground v.1.15,2013-01-09 06:28:00,
2013-01-08 23:33:00,31.2,14.7,30.47,NNE,32,3.0,4.0,50,0.00,,,0.00,Wunderground v.1.15,2013-01-09 06:33:00,
2013-01-08 23:43:00,31.2,14.7,30.47,North,354,3.0,5.0,50,0.00,,,0.00,Wunderground v.1.15,2013-01-09 06:43:00,
2013-01-08 23:53:00,31.2,14.7,30.47,NNW,333,3.0,4.0,50,0.00,,,0.00,Wunderground v.1.15,2013-01-09 06:53:00,
2013-01-08 23:58:00,31.3,14.8,30.47,North,349,3.0,4.0,50,0.00,,,0.00,Wunderground v.1.15,2013-01-09 06:58:00,